Location: *
(50.5492°N, 7.7469°E)
Time: 16:29:12
(UTC+00:00)

STARLINK-69 - Pass Details

Date: 21 October 2019
Orbit: 548 x 551 km, 53.0° (Epoch: 14 November)

Event Time Altitude Azimuth Distance (km) Brightness Sun altitude
Rises 17:04:26 0° 265° (W) 2,715 9.8 -6.8°
Reaches altitude 10° 17:06:41 10° 269° (W) 1,823 8.0 -7.2°
Maximum altitude 17:10:48 65° 351° (N) 608 3.8 -7.8°
Enters shadow 17:14:48 11° 74° (ENE) 1,773 5.6 -8.5°
